Regional Weather Roundup
Issued by NWS

Home | Current Version | Previous Version | Graphics & Text | Print | Product List | Glossary On
Versions: 1 2 3 4 5 6 7 8 9 10 11 12 13 14 15 16 17 18 19 20 21 22 23 24 25 26 27 28 29 30 31 32 33 34 35 36 37 38 39 40 41 42 43 44 45 46 47 48 49 50
000
ASUS43 KLOT 210158
RWRIL

ILLINOIS REGIONAL WEATHER ROUNDUP
NATIONAL WEATHER SERVICE CHICAGO/ROMEOVILLE IL
800 PM CST THU NOV 20 2014

NOTE: "FAIR" INDICATES FEW OR NO CLOUDS BELOW 12,000 FEET WITH NO
SIGNIFICANT WEATHER AND/OR OBSTRUCTIONS TO VISIBILITY.

* THESE STATIONS ARE NOT UNDER NWS QUALITY CONTROL. THEY ALSO MAY NOT
  REPORT WEATHER SUCH AS PRECIPITATION OR FOG.

ILZ001-002-007-009-015-016-024-210300-
NORTHWEST ILLINOIS

CITY           SKY/WX    TMP DP  RH WIND       PRES   REMARKS
MOLINE         CLEAR     20   8  60 NW7       30.28R WCI  11
$$

ILZ003-004-008-010-011-017-018-210300-
NORTH CENTRAL ILLINOIS

CITY           SKY/WX    TMP DP  RH WIND       PRES   REMARKS
ROCKFORD       NOT AVBL
$$

ILZ005-006-012>014-019>023-210300-
NORTHEAST ILLINOIS

CITY           SKY/WX    TMP DP  RH WIND       PRES   REMARKS
CHICAGO-OHARE  CLEAR     20   3  48 NW14G22   30.21R WCI   7
CHICAGO-MIDWAY NOT AVBL
AURORA         CLEAR     13   3  64 NW7       30.23R WCI   3
WAUKEGAN       NOT AVBL
DUPAGE AIRPORT CLEAR     17   2  51 W10       30.21R WCI   5
WHEELING       CLEAR     20   4  50 W12       30.23R WCI   8
NORTHERLY ISL    N/A     23   6  48 W12         N/A  WCI  12
$$

LMZ740>746-210300-
SOUTHERN LAKE MICHIGAN

STATION/POSITION SKY/WX   TEMP    WIND        PRES    VSBY  WAVE
                          AIR SEA DIR/SP/G                  HT/PER
                          (F)     (DEG/KT/KT) (MB)    (MI)  (FT/S)
SOUTHERN BUOY              26 43  290/ 23/ 31 1021.2R         7/ 6
WAUKEGAN HARBOR            20     280/  9/ 18   N/A
HARRISON CRIB              23     300/ 22/ 26   N/A
BURNHAM HARBOR             23     280/  9/ 17   N/A
CALUMET HARBOR             22     270/  8/ 15 1021.5R
MICHIGAN CITY              26     250/ 25/ 32   N/A
$$

ILZ025>027-034>036-040-047-049-050-058-095>099-210300-
WEST-CENTRAL ILLINOIS

CITY           SKY/WX    TMP DP  RH WIND       PRES   REMARKS
$$

ILZ028>032-037-038-041>044-048-051>054-059>061-210300-
CENTRAL ILLINOIS

CITY           SKY/WX    TMP DP  RH WIND       PRES   REMARKS
PEORIA         NOT AVBL
SPRINGFIELD    CLEAR     23  10  57 NW7       30.28R WCI  15
TAYLORVILLE    NOT AVBL
$$

ILZ033-039-045-046-055>057-062-063-210300-
EAST-CENTRAL ILLINOIS

CITY           SKY/WX    TMP DP  RH WIND       PRES   REMARKS
CHAMPAIGN      CLEAR     19  10  68 NW8       30.25R WCI   9
MATTOON        CLEAR     25  16  68 W5        30.25R WCI  19
$$

ILZ079-100>102-210300-
SOUTHWEST ILLINOIS

CITY           SKY/WX    TMP DP  RH WIND       PRES   REMARKS
ALTON          CLEAR     27  16  63 W7        30.29R WCI  19
CAHOKIA*       CLEAR     28  20  71 CALM      30.29R
$$

ILZ064>066-069>071-074>076-080>082-084>086-088>090-092>094-210300-
SOUTH-CENTRAL ILLINOIS

CITY           SKY/WX    TMP DP  RH WIND       PRES   REMARKS
CARBONDALE     CLEAR     28  17  63 CALM      30.28R
$$

ILZ067-068-072-073-078-083-087-091-210300-
SOUTHEAST ILLINOIS

CITY           SKY/WX    TMP DP  RH WIND       PRES   REMARKS
$$

ABBREVIATIONS USED IN REMARKS
   TC - TEMPERATURE IN CELSIUS
  WCI - WIND CHILL INDEX
   HX - HEAT INDEX
  VSB - VISIBILITY
$$




USA.gov is the U.S. government's official web portal to all federal, state and local government web resources and services.